Date_Time,Julian_Date,Latitude,Longitude,Instrument_Depth,U,V,Speed,Direction
(yyyy-mm-dd hh:mn:ss UTC),(JD),(+ deg. North),(+ deg. East),(m),(cm/s),(cm/s),(cm/s),(deg True)
1988-07-22 04:00:00 UTC,2447364.666667,28.6750,-92.0983,0012,7.20,3.63,8.0633,63.2443
1988-07-22 04:30:00 UTC,2447364.687500,28.6750,-92.0983,0012,37.52,24.03,44.5555,57.3621
1988-07-22 05:00:00 UTC,2447364.708333,28.6750,-92.0983,0012,15.48,6.83,16.9198,66.1922
1988-07-22 05:30:00 UTC,2447364.729167,28.6750,-92.0983,0012,14.75,7.45,16.5247,63.2024
1988-07-22 06:00:00 UTC,2447364.750000,28.6750,-92.0983,0012,19.55,10.10,22.0048,62.6780
1988-07-22 06:30:00 UTC,2447364.770833,28.6750,-92.0983,0012,12.33,6.48,13.9291,62.2759
1988-07-22 07:00:00 UTC,2447364.791667,28.6750,-92.0983,0012,13.08,7.68,15.1680,59.5804
1988-07-22 07:30:00 UTC,2447364.812500,28.6750,-92.0983,0012,12.53,7.88,14.8019,57.8346
1988-07-22 08:00:00 UTC,2447364.833333,28.6750,-92.0983,0012,22.73,14.28,26.8435,57.8611
1988-07-22 08:30:00 UTC,2447364.854167,28.6750,-92.0983,0012,17.95,11.03,21.0681,58.4299
1988-07-22 09:00:00 UTC,2447364.875000,28.6750,-92.0983,0012,16.30,9.40,18.8162,60.0285
1988-07-22 09:30:00 UTC,2447364.895833,28.6750,-92.0983,0012,19.35,11.20,22.3576,59.9372
1988-07-22 10:00:00 UTC,2447364.916667,28.6750,-92.0983,0012,19.10,10.33,21.7145,61.5938
1988-07-22 10:30:00 UTC,2447364.937500,28.6750,-92.0983,0012,25.50,14.30,29.2359,60.7170
1988-07-22 11:00:00 UTC,2447364.958333,28.6750,-92.0983,0012,16.28,8.28,18.2646,63.0421
1988-07-22 11:30:00 UTC,2447364.979167,28.6750,-92.0983,0012,22.23,11.70,25.1210,62.2415
1988-07-22 12:00:00 UTC,2447365.000000,28.6750,-92.0983,0012,20.38,9.65,22.5492,64.6623
1988-07-22 12:30:00 UTC,2447365.020833,28.6750,-92.0983,0012,17.23,7.15,18.6546,67.4628
1988-07-22 13:00:00 UTC,2447365.041667,28.6750,-92.0983,0012,17.55,6.43,18.6908,69.8781
1988-07-22 13:30:00 UTC,2447365.062500,28.6750,-92.0983,0012,15.30,5.93,16.4090,68.8146
1988-07-22 14:00:00 UTC,2447365.083333,28.6750,-92.0983,0012,6.80,1.90,7.0605,74.3890
1988-07-22 14:30:00 UTC,2447365.104167,28.6750,-92.0983,0012,21.90,0.95,21.9206,87.5161
1988-07-22 15:00:00 UTC,2447365.125000,28.6750,-92.0983,0012,24.88,0.05,24.8800,89.8849
1988-07-22 15:30:00 UTC,2447365.145833,28.6750,-92.0983,0012,10.45,-0.20,10.4519,91.0964
1988-07-22 16:00:00 UTC,2447365.166667,28.6750,-92.0983,0012,18.93,-2.90,19.1508,98.7098
1988-07-22 16:30:00 UTC,2447365.187500,28.6750,-92.0983,0012,11.25,-1.50,11.3496,97.5946
1988-07-22 17:00:00 UTC,2447365.208333,28.6750,-92.0983,0012,13.25,-2.95,13.5744,102.5517
1988-07-22 17:30:00 UTC,2447365.229167,28.6750,-92.0983,0012,26.45,-4.93,26.9055,100.5582
1988-07-22 18:00:00 UTC,2447365.250000,28.6750,-92.0983,0012,18.03,-3.63,18.3918,101.3832
1988-07-22 18:30:00 UTC,2447365.270833,28.6750,-92.0983,0012,27.02,-8.00,28.1794,106.4928
1988-07-22 19:00:00 UTC,2447365.291667,28.6750,-92.0983,0012,30.80,-7.90,31.7970,104.3859
1988-07-22 19:30:00 UTC,2447365.312500,28.6750,-92.0983,0012,27.10,-9.38,28.6774,109.0920
1988-07-22 20:00:00 UTC,2447365.333333,28.6750,-92.0983,0012,19.63,-4.10,20.0536,101.7974
1988-07-22 20:30:00 UTC,2447365.354167,28.6750,-92.0983,0012,28.07,-8.98,29.4714,107.7402
1988-07-22 21:00:00 UTC,2447365.375000,28.6750,-92.0983,0012,12.63,-1.25,12.6917,95.6522
1988-07-22 21:30:00 UTC,2447365.395833,28.6750,-92.0983,0012,6.98,-1.07,7.0615,98.7153
1988-07-22 22:00:00 UTC,2447365.416667,28.6750,-92.0983,0012,-11.20,-1.10,11.2539,264.3907
1988-07-22 22:30:00 UTC,2447365.437500,28.6750,-92.0983,0012,-3.10,-0.23,3.1085,265.7568
1988-07-22 23:00:00 UTC,2447365.458333,28.6750,-92.0983,0012,-0.83,0.35,0.9008,292.8645
1988-07-22 23:30:00 UTC,2447365.479167,28.6750,-92.0983,0012,2.98,0.43,3.0109,81.7892
1988-07-23 00:00:00 UTC,2447365.500000,28.6750,-92.0983,0012,3.83,1.73,4.2026,65.6914
1988-07-23 00:30:00 UTC,2447365.520833,28.6750,-92.0983,0012,5.30,1.77,5.5877,71.5326
1988-07-23 01:00:00 UTC,2447365.541667,28.6750,-92.0983,0012,6.75,3.43,7.5715,63.0627
1988-07-23 01:30:00 UTC,2447365.562500,28.6750,-92.0983,0012,1.48,0.65,1.6164,66.2894
1988-07-23 02:00:00 UTC,2447365.583333,28.6750,-92.0983,0012,3.28,1.88,3.7806,60.1799
1988-07-23 02:30:00 UTC,2447365.604167,28.6750,-92.0983,0012,6.43,3.68,7.4086,60.2167
1988-07-23 03:00:00 UTC,2447365.625000,28.6750,-92.0983,0012,1.63,1.00,1.9123,58.4710
1988-07-23 03:30:00 UTC,2447365.645833,28.6750,-92.0983,0012,5.33,2.93,6.0823,61.2016
1988-07-23 04:00:00 UTC,2447365.666667,28.6750,-92.0983,0012,12.18,5.68,13.4393,64.9986
1988-07-23 04:30:00 UTC,2447365.687500,28.6750,-92.0983,0012,10.28,4.50,11.2218,66.3589
1988-07-23 05:00:00 UTC,2447365.708333,28.6750,-92.0983,0012,9.30,3.50,9.9368,69.3765
1988-07-23 05:30:00 UTC,2447365.729167,28.6750,-92.0983,0012,8.13,2.43,8.4854,73.3590
1988-07-23 06:00:00 UTC,2447365.750000,28.6750,-92.0983,0012,6.33,2.30,6.7349,70.0314
1988-07-23 06:30:00 UTC,2447365.770833,28.6750,-92.0983,0012,10.75,2.68,11.0790,76.0014
1988-07-23 07:00:00 UTC,2447365.791667,28.6750,-92.0983,0012,11.03,2.88,11.3998,75.3664
1988-07-23 07:30:00 UTC,2447365.812500,28.6750,-92.0983,0012,13.63,2.65,13.8852,78.9976
1988-07-23 08:00:00 UTC,2447365.833333,28.6750,-92.0983,0012,12.63,2.15,12.8117,80.3392
1988-07-23 08:30:00 UTC,2447365.854167,28.6750,-92.0983,0012,13.85,2.45,14.0650,79.9684
1988-07-23 09:00:00 UTC,2447365.875000,28.6750,-92.0983,0012,11.25,2.35,11.4928,78.2012
1988-07-23 09:30:00 UTC,2447365.895833,28.6750,-92.0983,0012,18.90,3.38,19.1999,79.8606
1988-07-23 10:00:00 UTC,2447365.916667,28.6750,-92.0983,0012,17.90,2.32,18.0497,82.6151
1988-07-23 10:30:00 UTC,2447365.937500,28.6750,-92.0983,0012,15.20,1.95,15.3246,82.6895
1988-07-23 11:00:00 UTC,2447365.958333,28.6750,-92.0983,0012,20.13,2.40,20.2726,83.2010
1988-07-23 11:30:00 UTC,2447365.979167,28.6750,-92.0983,0012,17.98,2.07,18.0988,83.4326
1988-07-23 12:00:00 UTC,2447366.000000,28.6750,-92.0983,0012,14.95,0.80,14.9714,86.9369
1988-07-23 12:30:00 UTC,2447366.020833,28.6750,-92.0983,0012,14.95,1.05,14.9868,85.9825
1988-07-23 13:00:00 UTC,2447366.041667,28.6750,-92.0983,0012,14.58,1.07,14.6192,85.8027
1988-07-23 13:30:00 UTC,2447366.062500,28.6750,-92.0983,0012,18.60,-0.48,18.6062,91.4783
1988-07-23 14:00:00 UTC,2447366.083333,28.6750,-92.0983,0012,21.40,-1.85,21.4798,94.9409
1988-07-23 14:30:00 UTC,2447366.104167,28.6750,-92.0983,0012,21.73,-2.83,21.9135,97.4201
1988-07-23 15:00:00 UTC,2447366.125000,28.6750,-92.0983,0012,21.03,-3.08,21.2543,98.3322
1988-07-23 15:30:00 UTC,2447366.145833,28.6750,-92.0983,0012,16.35,-0.70,16.3650,92.4515
1988-07-23 16:00:00 UTC,2447366.166667,28.6750,-92.0983,0012,23.55,-1.95,23.6306,94.7334
1988-07-23 16:30:00 UTC,2447366.187500,28.6750,-92.0983,0012,22.28,-3.05,22.4878,97.7950
1988-07-23 17:00:00 UTC,2447366.208333,28.6750,-92.0983,0012,22.90,-2.73,23.0622,96.7984
1988-07-23 17:30:00 UTC,2447366.229167,28.6750,-92.0983,0012,27.38,-6.70,28.1878,103.7503
1988-07-23 18:00:00 UTC,2447366.250000,28.6750,-92.0983,0012,30.02,-5.88,30.5904,101.0822
1988-07-23 18:30:00 UTC,2447366.270833,28.6750,-92.0983,0012,21.83,-7.40,23.0501,108.7258
1988-07-23 19:00:00 UTC,2447366.291667,28.6750,-92.0983,0012,26.20,-7.45,27.2386,105.8732
1988-07-23 19:30:00 UTC,2447366.312500,28.6750,-92.0983,0012,25.30,-5.75,25.9452,102.8043
1988-07-23 20:00:00 UTC,2447366.333333,28.6750,-92.0983,0012,27.65,-7.63,28.6834,105.4268
1988-07-23 20:30:00 UTC,2447366.354167,28.6750,-92.0983,0012,16.68,-5.88,17.6861,109.4185
1988-07-23 21:00:00 UTC,2447366.375000,28.6750,-92.0983,0012,21.10,-7.75,22.4783,110.1682
1988-07-23 21:30:00 UTC,2447366.395833,28.6750,-92.0983,0012,18.85,-5.45,19.6221,106.1259
1988-07-23 22:00:00 UTC,2447366.416667,28.6750,-92.0983,0012,10.93,-4.90,11.9781,114.1470
1988-07-23 22:30:00 UTC,2447366.437500,28.6750,-92.0983,0012,10.90,-4.60,11.8309,112.8806
1988-07-23 23:00:00 UTC,2447366.458333,28.6750,-92.0983,0012,2.25,-0.90,2.4233,111.8014
1988-07-23 23:30:00 UTC,2447366.479167,28.6750,-92.0983,0012,-1.85,0.23,1.8642,277.0869
1988-07-24 00:00:00 UTC,2447366.500000,28.6750,-92.0983,0012,5.70,-2.80,6.3506,116.1616
1988-07-24 00:30:00 UTC,2447366.520833,28.6750,-92.0983,0012,2.70,-1.43,3.0553,117.9070
1988-07-24 01:00:00 UTC,2447366.541667,28.6750,-92.0983,0012,9.35,3.58,10.0119,69.0488
1988-07-24 01:30:00 UTC,2447366.562500,28.6750,-92.0983,0012,8.30,3.75,9.1078,65.6862
1988-07-24 02:00:00 UTC,2447366.583333,28.6750,-92.0983,0012,7.90,3.15,8.5049,68.2611
1988-07-24 02:30:00 UTC,2447366.604167,28.6750,-92.0983,0012,9.78,3.23,10.2996,71.7234
1988-07-24 03:00:00 UTC,2447366.625000,28.6750,-92.0983,0012,9.55,0.93,9.5952,84.4379
1988-07-24 03:30:00 UTC,2447366.645833,28.6750,-92.0983,0012,4.43,0.48,4.4559,83.8160
1988-07-24 04:00:00 UTC,2447366.666667,28.6750,-92.0983,0012,10.55,-0.63,10.5688,93.4174
1988-07-24 04:30:00 UTC,2447366.687500,28.6750,-92.0983,0012,8.93,0.28,8.9344,88.2041
1988-07-24 05:00:00 UTC,2447366.708333,28.6750,-92.0983,0012,8.28,-0.07,8.2803,90.4844
1988-07-24 05:30:00 UTC,2447366.729167,28.6750,-92.0983,0012,3.88,-0.28,3.8901,94.1276
1988-07-24 06:00:00 UTC,2447366.750000,28.6750,-92.0983,0012,6.83,-0.53,6.8505,94.4372
1988-07-24 06:30:00 UTC,2447366.770833,28.6750,-92.0983,0012,6.03,-0.43,6.0453,94.0789
1988-07-24 07:00:00 UTC,2447366.791667,28.6750,-92.0983,0012,12.80,-1.18,12.8543,95.2671
1988-07-24 07:30:00 UTC,2447366.812500,28.6750,-92.0983,0012,12.73,-1.03,12.7716,94.6258
1988-07-24 08:00:00 UTC,2447366.833333,28.6750,-92.0983,0012,17.43,-1.00,17.4587,93.2836
1988-07-24 08:30:00 UTC,2447366.854167,28.6750,-92.0983,0012,14.18,-0.58,14.1919,92.3422
1988-07-24 09:00:00 UTC,2447366.875000,28.6750,-92.0983,0012,13.03,0.03,13.0300,89.8681
1988-07-24 09:30:00 UTC,2447366.895833,28.6750,-92.0983,0012,17.30,-1.38,17.3550,94.5608
1988-07-24 10:00:00 UTC,2447366.916667,28.6750,-92.0983,0012,15.35,-0.65,15.3638,92.4248
1988-07-24 10:30:00 UTC,2447366.937500,28.6750,-92.0983,0012,17.55,-1.40,17.6058,94.5609
1988-07-24 11:00:00 UTC,2447366.958333,28.6750,-92.0983,0012,19.07,-1.55,19.1329,94.6468
1988-07-24 11:30:00 UTC,2447366.979167,28.6750,-92.0983,0012,9.43,-0.70,9.4559,94.2453
1988-07-24 12:00:00 UTC,2447367.000000,28.6750,-92.0983,0012,17.55,-1.50,17.6140,94.8852
1988-07-24 12:30:00 UTC,2447367.020833,28.6750,-92.0983,0012,11.68,-1.58,11.7864,97.7039
1988-07-24 13:00:00 UTC,2447367.041667,28.6750,-92.0983,0012,12.45,-1.88,12.5911,98.5870
1988-07-24 13:30:00 UTC,2447367.062500,28.6750,-92.0983,0012,14.35,-2.38,14.5460,99.4170
1988-07-24 14:00:00 UTC,2447367.083333,28.6750,-92.0983,0012,15.23,-3.50,15.6270,102.9424
1988-07-24 14:30:00 UTC,2447367.104167,28.6750,-92.0983,0012,17.00,-3.60,17.3770,101.9566
1988-07-24 15:00:00 UTC,2447367.125000,28.6750,-92.0983,0012,18.35,-2.30,18.4936,97.1442
1988-07-24 15:30:00 UTC,2447367.145833,28.6750,-92.0983,0012,15.93,-2.85,16.1829,100.1433
1988-07-24 16:00:00 UTC,2447367.166667,28.6750,-92.0983,0012,5.18,-1.10,5.2955,101.9890
1988-07-24 16:30:00 UTC,2447367.187500,28.6750,-92.0983,0012,15.33,-2.13,15.4773,97.9102
1988-07-24 17:00:00 UTC,2447367.208333,28.6750,-92.0983,0012,15.75,-1.98,15.8740,97.1653
1988-07-24 17:30:00 UTC,2447367.229167,28.6750,-92.0983,0012,21.13,1.45,21.1797,86.0744
1988-07-24 18:00:00 UTC,2447367.250000,28.6750,-92.0983,0012,16.60,-0.53,16.6085,91.8287
1988-07-24 18:30:00 UTC,2447367.270833,28.6750,-92.0983,0012,18.55,-2.93,18.7800,98.9758
1988-07-24 19:00:00 UTC,2447367.291667,28.6750,-92.0983,0012,19.48,1.13,19.5127,86.6801
1988-07-24 19:30:00 UTC,2447367.312500,28.6750,-92.0983,0012,8.20,-2.10,8.4646,104.3646
1988-07-24 20:00:00 UTC,2447367.333333,28.6750,-92.0983,0012,8.63,-0.68,8.6567,94.5053
1988-07-24 20:30:00 UTC,2447367.354167,28.6750,-92.0983,0012,16.85,-0.25,16.8519,90.8500
1988-07-24 21:00:00 UTC,2447367.375000,28.6750,-92.0983,0012,9.13,-2.50,9.4661,105.3135
1988-07-24 21:30:00 UTC,2447367.395833,28.6750,-92.0983,0012,19.33,-1.38,19.3792,94.0835
1988-07-24 22:00:00 UTC,2447367.416667,28.6750,-92.0983,0012,9.45,-0.40,9.4585,92.4238
1988-07-24 22:30:00 UTC,2447367.437500,28.6750,-92.0983,0012,2.30,-0.03,2.3002,90.7473
1988-07-24 23:00:00 UTC,2447367.458333,28.6750,-92.0983,0012,-1.40,0.08,1.4023,273.2705
1988-07-24 23:30:00 UTC,2447367.479167,28.6750,-92.0983,0012,2.15,0.20,2.1593,84.6854
1988-07-25 00:00:00 UTC,2447367.500000,28.6750,-92.0983,0012,-2.73,-0.35,2.7523,262.6942
1988-07-25 00:30:00 UTC,2447367.520833,28.6750,-92.0983,0012,6.25,1.60,6.4516,75.6407
1988-07-25 01:00:00 UTC,2447367.541667,28.6750,-92.0983,0012,2.23,0.35,2.2573,81.0802
1988-07-25 01:30:00 UTC,2447367.562500,28.6750,-92.0983,0012,4.90,1.23,5.0520,75.9087
1988-07-25 02:00:00 UTC,2447367.583333,28.6750,-92.0983,0012,1.93,0.75,2.0706,68.7638
1988-07-25 02:30:00 UTC,2447367.604167,28.6750,-92.0983,0012,1.98,0.58,2.0632,73.6731
1988-07-25 03:00:00 UTC,2447367.625000,28.6750,-92.0983,0012,7.63,3.18,8.2662,67.3748
1988-07-25 03:30:00 UTC,2447367.645833,28.6750,-92.0983,0012,0.33,0.05,0.3338,81.3843
1988-07-25 04:00:00 UTC,2447367.666667,28.6750,-92.0983,0012,7.85,-0.15,7.8514,91.0947
1988-07-25 04:30:00 UTC,2447367.687500,28.6750,-92.0983,0012,0.33,-0.33,0.4667,135.0000
1988-07-25 05:00:00 UTC,2447367.708333,28.6750,-92.0983,0012,-1.20,0.23,1.2218,280.8501
1988-07-25 05:30:00 UTC,2447367.729167,28.6750,-92.0983,0012,-3.13,-0.23,3.1384,265.7973
1988-07-25 06:00:00 UTC,2447367.750000,28.6750,-92.0983,0012,3.93,-1.58,4.2357,111.9019
1988-07-25 06:30:00 UTC,2447367.770833,28.6750,-92.0983,0012,5.95,-2.00,6.2771,108.5793
1988-07-25 07:00:00 UTC,2447367.791667,28.6750,-92.0983,0012,6.78,-2.08,7.0919,107.0552
1988-07-25 07:30:00 UTC,2447367.812500,28.6750,-92.0983,0012,4.38,-1.80,4.7354,112.3406
1988-07-25 08:00:00 UTC,2447367.833333,28.6750,-92.0983,0012,5.40,-2.38,5.9012,113.7850
1988-07-25 08:30:00 UTC,2447367.854167,28.6750,-92.0983,0012,-0.80,0.28,0.8476,289.2900
1988-07-25 09:00:00 UTC,2447367.875000,28.6750,-92.0983,0012,4.20,-2.35,4.8127,119.2281
1988-07-25 09:30:00 UTC,2447367.895833,28.6750,-92.0983,0012,-0.38,0.18,0.4205,295.3462
1988-07-25 10:00:00 UTC,2447367.916667,28.6750,-92.0983,0012,4.70,-2.80,5.4708,120.7841
1988-07-25 10:30:00 UTC,2447367.937500,28.6750,-92.0983,0012,4.88,-2.40,5.4382,116.1881
1988-07-25 11:00:00 UTC,2447367.958333,28.6750,-92.0983,0012,4.75,-2.75,5.4886,120.0686
1988-07-25 11:30:00 UTC,2447367.979167,28.6750,-92.0983,0012,5.03,-2.68,5.6994,118.0488
1988-07-25 12:00:00 UTC,2447368.000000,28.6750,-92.0983,0012,5.88,-2.65,6.4496,114.2601
1988-07-25 12:30:00 UTC,2447368.020833,28.6750,-92.0983,0012,0.35,0.18,0.3936,62.7839
1988-07-25 13:00:00 UTC,2447368.041667,28.6750,-92.0983,0012,3.55,-1.05,3.7020,106.4769
1988-07-25 13:30:00 UTC,2447368.062500,28.6750,-92.0983,0012,0.78,0.45,0.9005,60.0184
1988-07-25 14:00:00 UTC,2447368.083333,28.6750,-92.0983,0012,6.80,3.75,7.7655,61.1246
1988-07-25 14:30:00 UTC,2447368.104167,28.6750,-92.0983,0012,3.23,1.73,3.6641,61.8263
1988-07-25 15:00:00 UTC,2447368.125000,28.6750,-92.0983,0012,5.68,2.13,6.0662,69.4439
1988-07-25 15:30:00 UTC,2447368.145833,28.6750,-92.0983,0012,5.65,1.38,5.8161,76.2744
1988-07-25 16:00:00 UTC,2447368.166667,28.6750,-92.0983,0012,6.75,1.88,7.0069,74.4365
1988-07-25 16:30:00 UTC,2447368.187500,28.6750,-92.0983,0012,7.55,1.15,7.6371,81.3394
1988-07-25 17:00:00 UTC,2447368.208333,28.6750,-92.0983,0012,7.63,0.93,7.6865,83.0507
1988-07-25 17:30:00 UTC,2447368.229167,28.6750,-92.0983,0012,3.63,0.05,3.6303,89.2108
1988-07-25 18:00:00 UTC,2447368.250000,28.6750,-92.0983,0012,8.20,0.63,8.2242,85.6066
1988-07-25 18:30:00 UTC,2447368.270833,28.6750,-92.0983,0012,15.23,-3.00,15.5227,101.1434
1988-07-25 19:00:00 UTC,2447368.291667,28.6750,-92.0983,0012,8.23,-0.83,8.2717,95.7588
1988-07-25 19:30:00 UTC,2447368.312500,28.6750,-92.0983,0012,8.33,-1.18,8.4132,98.0627
1988-07-25 20:00:00 UTC,2447368.333333,28.6750,-92.0983,0012,7.05,-0.93,7.1111,97.5148
1988-07-25 20:30:00 UTC,2447368.354167,28.6750,-92.0983,0012,0.68,-0.10,0.6873,98.3659
1988-07-25 21:00:00 UTC,2447368.375000,28.6750,-92.0983,0012,5.88,-1.18,5.9972,101.3474
1988-07-25 21:30:00 UTC,2447368.395833,28.6750,-92.0983,0012,1.82,-0.30,1.8446,99.3602
1988-07-25 22:00:00 UTC,2447368.416667,28.6750,-92.0983,0012,3.65,-0.78,3.7324,102.0626
1988-07-25 22:30:00 UTC,2447368.437500,28.6750,-92.0983,0012,11.33,-3.93,11.9922,109.1300
1988-07-25 23:00:00 UTC,2447368.458333,28.6750,-92.0983,0012,6.73,-2.25,7.0962,108.4860
1988-07-25 23:30:00 UTC,2447368.479167,28.6750,-92.0983,0012,4.93,-1.93,5.2943,111.3794
1988-07-26 00:00:00 UTC,2447368.500000,28.6750,-92.0983,0012,2.40,-1.00,2.6000,112.6199
1988-07-26 00:30:00 UTC,2447368.520833,28.6750,-92.0983,0012,-1.68,0.48,1.7472,285.9454
1988-07-26 01:00:00 UTC,2447368.541667,28.6750,-92.0983,0012,4.30,-1.98,4.7340,114.7244
1988-07-26 01:30:00 UTC,2447368.562500,28.6750,-92.0983,0012,1.45,-0.90,1.7066,121.8274
1988-07-26 02:00:00 UTC,2447368.583333,28.6750,-92.0983,0012,-0.80,0.25,0.8382,287.3540
1988-07-26 02:30:00 UTC,2447368.604167,28.6750,-92.0983,0012,-2.25,1.25,2.5739,299.0546
1988-07-26 03:00:00 UTC,2447368.625000,28.6750,-92.0983,0012,-0.85,0.33,0.9118,291.2180
1988-07-26 03:30:00 UTC,2447368.645833,28.6750,-92.0983,0012,3.98,-1.28,4.1808,107.8282
1988-07-26 04:00:00 UTC,2447368.666667,28.6750,-92.0983,0012,6.30,-1.55,6.4879,103.8220
1988-07-26 04:30:00 UTC,2447368.687500,28.6750,-92.0983,0012,5.25,-1.60,5.4884,106.9492
1988-07-26 05:00:00 UTC,2447368.708333,28.6750,-92.0983,0012,2.35,-0.80,2.4824,108.7999
1988-07-26 05:30:00 UTC,2447368.729167,28.6750,-92.0983,0012,5.55,-1.10,5.6580,101.2106
1988-07-26 06:00:00 UTC,2447368.750000,28.6750,-92.0983,0012,4.50,-1.25,4.6704,105.5241
1988-07-26 06:30:00 UTC,2447368.770833,28.6750,-92.0983,0012,1.88,-0.60,1.9734,107.7004
1988-07-26 07:00:00 UTC,2447368.791667,28.6750,-92.0983,0012,5.73,-3.18,6.5533,119.0291
1988-07-26 07:30:00 UTC,2447368.812500,28.6750,-92.0983,0012,1.58,-0.60,1.6901,110.7941
1988-07-26 08:00:00 UTC,2447368.833333,28.6750,-92.0983,0012,5.83,-2.95,6.5339,116.8396
1988-07-26 08:30:00 UTC,2447368.854167,28.6750,-92.0983,0012,11.38,-5.30,12.5537,114.9728
1988-07-26 09:00:00 UTC,2447368.875000,28.6750,-92.0983,0012,6.85,-3.55,7.7152,117.3954
1988-07-26 09:30:00 UTC,2447368.895833,28.6750,-92.0983,0012,5.13,-2.43,5.6764,115.3462
1988-07-26 10:00:00 UTC,2447368.916667,28.6750,-92.0983,0012,-4.28,2.10,4.7674,296.1351
1988-07-26 10:30:00 UTC,2447368.937500,28.6750,-92.0983,0012,10.53,-5.55,11.9031,117.7922
1988-07-26 11:00:00 UTC,2447368.958333,28.6750,-92.0983,0012,-2.85,1.60,3.2684,299.3100
1988-07-26 11:30:00 UTC,2447368.979167,28.6750,-92.0983,0012,1.10,-0.65,1.2777,120.5792
1988-07-26 12:00:00 UTC,2447369.000000,28.6750,-92.0983,0012,4.15,2.18,4.6877,62.2870
1988-07-26 12:30:00 UTC,2447369.020833,28.6750,-92.0983,0012,3.10,1.58,3.4794,62.9931
1988-07-26 13:00:00 UTC,2447369.041667,28.6750,-92.0983,0012,6.60,3.85,7.6408,59.7436
1988-07-26 13:30:00 UTC,2447369.062500,28.6750,-92.0983,0012,-3.33,-1.75,3.7618,242.2769
1988-07-26 14:00:00 UTC,2447369.083333,28.6750,-92.0983,0012,5.15,2.27,5.6281,66.2132
1988-07-26 14:30:00 UTC,2447369.104167,28.6750,-92.0983,0012,10.68,3.55,11.2545,71.6133
1988-07-26 15:00:00 UTC,2447369.125000,28.6750,-92.0983,0012,1.38,0.60,1.5048,66.5014
1988-07-26 15:30:00 UTC,2447369.145833,28.6750,-92.0983,0012,-0.78,-0.20,0.8052,255.6186
1988-07-26 16:00:00 UTC,2447369.166667,28.6750,-92.0983,0012,1.90,0.90,2.1024,64.6538
1988-07-26 16:30:00 UTC,2447369.187500,28.6750,-92.0983,0012,-2.78,-0.13,2.7830,267.3227
1988-07-26 17:00:00 UTC,2447369.208333,28.6750,-92.0983,0012,2.18,0.30,2.2005,82.1645
1988-07-26 17:30:00 UTC,2447369.229167,28.6750,-92.0983,0012,4.10,0.30,4.1110,85.8151
1988-07-26 18:00:00 UTC,2447369.250000,28.6750,-92.0983,0012,1.45,-0.03,1.4503,91.1853
1988-07-26 18:30:00 UTC,2447369.270833,28.6750,-92.0983,0012,5.13,0.30,5.1388,86.6532
1988-07-26 19:00:00 UTC,2447369.291667,28.6750,-92.0983,0012,10.78,-0.23,10.7825,91.2223
1988-07-26 19:30:00 UTC,2447369.312500,28.6750,-92.0983,0012,11.78,-1.15,11.8360,95.5757
1988-07-26 20:00:00 UTC,2447369.333333,28.6750,-92.0983,0012,11.55,-2.13,11.7448,100.4488
1988-07-26 20:30:00 UTC,2447369.354167,28.6750,-92.0983,0012,4.28,-1.10,4.4191,104.4136
1988-07-26 21:00:00 UTC,2447369.375000,28.6750,-92.0983,0012,12.30,-3.83,12.8825,107.2956
1988-07-26 21:30:00 UTC,2447369.395833,28.6750,-92.0983,0012,5.80,-2.25,6.2211,111.2028
1988-07-26 22:00:00 UTC,2447369.416667,28.6750,-92.0983,0012,10.13,-3.98,10.8838,111.4495
1988-07-26 22:30:00 UTC,2447369.437500,28.6750,-92.0983,0012,6.43,-2.98,7.0870,114.8655
1988-07-26 23:00:00 UTC,2447369.458333,28.6750,-92.0983,0012,3.73,-1.60,4.0587,113.2171
1988-07-26 23:30:00 UTC,2447369.479167,28.6750,-92.0983,0012,1.55,-0.70,1.7007,114.3045
1988-07-27 00:00:00 UTC,2447369.500000,28.6750,-92.0983,0012,6.20,-3.35,7.0472,118.3833
1988-07-27 00:30:00 UTC,2447369.520833,28.6750,-92.0983,0012,-0.25,0.05,0.2550,281.3099
1988-07-27 01:00:00 UTC,2447369.541667,28.6750,-92.0983,0012,1.10,-0.68,1.2932,121.7236
1988-07-27 01:30:00 UTC,2447369.562500,28.6750,-92.0983,0012,2.02,-1.10,2.3001,118.5707
1988-07-27 02:00:00 UTC,2447369.583333,28.6750,-92.0983,0012,0.28,-0.75,0.8006,159.5277
1988-07-27 02:30:00 UTC,2447369.604167,28.6750,-92.0983,0012,6.98,1.05,7.0585,81.4451
1988-07-27 03:00:00 UTC,2447369.625000,28.6750,-92.0983,0012,1.70,1.25,2.1101,53.6732
1988-07-27 03:30:00 UTC,2447369.645833,28.6750,-92.0983,0012,8.05,2.95,8.5735,69.8742
1988-07-27 04:00:00 UTC,2447369.666667,28.6750,-92.0983,0012,4.33,0.63,4.3756,81.7217
1988-07-27 04:30:00 UTC,2447369.687500,28.6750,-92.0983,0012,4.20,1.45,4.4433,70.9534
1988-07-27 05:00:00 UTC,2447369.708333,28.6750,-92.0983,0012,5.68,2.07,6.0454,69.9764
1988-07-27 05:30:00 UTC,2447369.729167,28.6750,-92.0983,0012,5.15,1.48,5.3584,73.9665
1988-07-27 06:00:00 UTC,2447369.750000,28.6750,-92.0983,0012,4.45,1.18,4.6038,75.1488
1988-07-27 06:30:00 UTC,2447369.770833,28.6750,-92.0983,0012,6.23,2.65,6.7702,66.9570
1988-07-27 07:00:00 UTC,2447369.791667,28.6750,-92.0983,0012,2.40,0.58,2.4691,76.4140
1988-07-27 07:30:00 UTC,2447369.812500,28.6750,-92.0983,0012,2.27,0.83,2.4170,69.9156
1988-07-27 08:00:00 UTC,2447369.833333,28.6750,-92.0983,0012,4.38,0.75,4.4437,80.2833
1988-07-27 08:30:00 UTC,2447369.854167,28.6750,-92.0983,0012,6.90,1.98,7.1785,73.9888
1988-07-27 09:00:00 UTC,2447369.875000,28.6750,-92.0983,0012,1.18,-0.68,1.3619,119.9536
1988-07-27 09:30:00 UTC,2447369.895833,28.6750,-92.0983,0012,1.98,0.95,2.1961,64.3684
1988-07-27 10:00:00 UTC,2447369.916667,28.6750,-92.0983,0012,0.78,0.35,0.8549,65.8334
1988-07-27 10:30:00 UTC,2447369.937500,28.6750,-92.0983,0012,5.53,-0.25,5.5356,92.5885
1988-07-27 11:00:00 UTC,2447369.958333,28.6750,-92.0983,0012,1.25,0.70,1.4327,60.7512
1988-07-27 11:30:00 UTC,2447369.979167,28.6750,-92.0983,0012,-1.85,-0.40,1.8927,257.7995
1988-07-27 12:00:00 UTC,2447370.000000,28.6750,-92.0983,0012,1.65,0.83,1.8470,63.2962
1988-07-27 12:30:00 UTC,2447370.020833,28.6750,-92.0983,0012,3.90,1.45,4.1608,69.6051
1988-07-27 13:00:00 UTC,2447370.041667,28.6750,-92.0983,0012,3.25,0.85,3.3593,75.3432
1988-07-27 13:30:00 UTC,2447370.062500,28.6750,-92.0983,0012,3.35,0.88,3.4637,75.2817
1988-07-27 14:00:00 UTC,2447370.083333,28.6750,-92.0983,0012,3.00,1.63,3.4142,61.4833
1988-07-27 14:30:00 UTC,2447370.104167,28.6750,-92.0983,0012,-6.35,-0.40,6.3626,266.3956
1988-07-27 15:00:00 UTC,2447370.125000,28.6750,-92.0983,0012,6.43,2.30,6.8290,70.3180
1988-07-27 15:30:00 UTC,2447370.145833,28.6750,-92.0983,0012,2.58,0.68,2.6681,75.2346
1988-07-27 16:00:00 UTC,2447370.166667,28.6750,-92.0983,0012,0.80,0.03,0.8006,87.8524
1988-07-27 16:30:00 UTC,2447370.187500,28.6750,-92.0983,0012,6.73,0.10,6.7307,89.1487
1988-07-27 17:00:00 UTC,2447370.208333,28.6750,-92.0983,0012,1.85,-0.25,1.8668,97.6961
1988-07-27 17:30:00 UTC,2447370.229167,28.6750,-92.0983,0012,2.43,-0.03,2.4302,90.7073
1988-07-27 18:00:00 UTC,2447370.250000,28.6750,-92.0983,0012,12.95,-1.35,13.0202,95.9514
1988-07-27 18:30:00 UTC,2447370.270833,28.6750,-92.0983,0012,11.48,-2.15,11.6796,100.6076
1988-07-27 19:00:00 UTC,2447370.291667,28.6750,-92.0983,0012,19.73,-4.50,20.2367,102.8482